THYEMN LTAJ-LTAC

Flight info

Callsign THYEMN
Flight time N/A
Altitude 34000
Route POGEN UL605 REMPO UA17 RATSI UL605 BELSU UA17 YUCEL
Aircraft B738/M-SDE2E3FGHIRWXY/LB1

Departure

Time 2026-04-21 15:01
Airport Gaziantep Oğuzeli International Airport (LTAJ)

Arrival

Time N/A
Airport Esenboğa International Airport (LTAC)
Time Latitude Longitude Altitude Speed Heading
2026-04-21 14:15 36.94587 37.47433 2322 ft 0 kts 197°
2026-04-21 14:49 36.94588 37.47433 2321 ft 0 kts 197°
2026-04-21 14:49 36.94601 37.47438 2321 ft 2 kts 197°
2026-04-21 14:50 36.94610 37.47442 2321 ft 2 kts 206°
2026-04-21 14:50 36.94626 37.47457 2321 ft 2 kts 227°
2026-04-21 14:50 36.94635 37.47472 2321 ft 2 kts 243°
2026-04-21 14:50 36.94640 37.47489 2321 ft 2 kts 259°
2026-04-21 14:51 36.94641 37.47508 2321 ft 2 kts 274°
2026-04-21 14:51 36.94640 37.47520 2321 ft 0 kts 284°
2026-04-21 14:51 36.94638 37.47528 2321 ft 0 kts 287°
2026-04-21 14:53 36.94643 37.47502 2321 ft 6 kts 284°
2026-04-21 14:54 36.94655 37.47453 2321 ft 4 kts 301°
2026-04-21 14:54 36.94679 37.47434 2321 ft 3 kts 346°
2026-04-21 14:54 36.94710 37.47442 2321 ft 6 kts 41°
2026-04-21 14:54 36.94719 37.47507 2321 ft 9 kts 98°
2026-04-21 14:55 36.94699 37.47604 2321 ft 13 kts 107°
2026-04-21 14:55 36.94669 37.47727 2321 ft 16 kts 104°
2026-04-21 14:55 36.94636 37.47884 2321 ft 20 kts 104°
2026-04-21 14:55 36.94597 37.48069 2321 ft 22 kts 105°
2026-04-21 14:56 36.94557 37.48252 2321 ft 20 kts 105°
2026-04-21 14:56 36.94519 37.48425 2321 ft 20 kts 105°
2026-04-21 14:56 36.94484 37.48591 2321 ft 19 kts 104°
2026-04-21 14:56 36.94450 37.48749 2321 ft 18 kts 104°
2026-04-21 14:57 36.94418 37.48902 2321 ft 17 kts 105°
2026-04-21 14:57 36.94384 37.49057 2321 ft 19 kts 105°
2026-04-21 14:57 36.94346 37.49233 2321 ft 19 kts 104°
2026-04-21 14:57 36.94323 37.49353 2321 ft 14 kts 93°
2026-04-21 14:58 36.94359 37.49411 2321 ft 0 kts 19°
2026-04-21 14:59 36.94408 37.49429 2321 ft 11 kts 13°
2026-04-21 14:59 36.94469 37.49404 2321 ft 8 kts 304°
2026-04-21 14:59 36.94479 37.49376 2321 ft 0 kts 289°
2026-04-21 15:00 36.94492 37.49323 2321 ft 25 kts 285°
2026-04-21 15:00 36.94609 37.48772 2322 ft 104 kts 285°
2026-04-21 15:01 36.94852 37.47642 2323 ft 160 kts 283°
2026-04-21 15:01 36.95059 37.46341 3063 ft 138 kts 279°
2026-04-21 15:01 36.95220 37.45230 3493 ft 140 kts 278°
2026-04-21 15:01 36.95261 37.43921 3594 ft 150 kts 268°
2026-04-21 15:02 36.95066 37.42666 3991 ft 146 kts 257°
2026-04-21 15:02 36.95012 37.41402 4003 ft 164 kts 284°
2026-04-21 15:02 36.95431 37.39946 3538 ft 192 kts 303°
2026-04-21 15:02 36.96115 37.38284 3737 ft 230 kts 295°
2026-04-21 15:03 36.96582 37.37078 4216 ft 238 kts 296°
2026-04-21 15:03 36.97133 37.35244 5563 ft 212 kts 277°
2026-04-21 15:03 36.97250 37.32897 6058 ft 248 kts 268°
2026-04-21 15:03 36.97030 37.30430 4897 ft 323 kts 264°
2026-04-21 15:04 36.96729 37.27522 4831 ft 343 kts 261°
2026-04-21 15:04 36.96469 37.24596 5313 ft 343 kts 271°
2026-04-21 15:04 36.96738 37.21643 6083 ft 335 kts 281°
2026-04-21 15:04 36.97212 37.18878 6937 ft 326 kts 287°
2026-04-21 15:05 36.97989 37.16178 7243 ft 333 kts 289°
2026-04-21 15:05 37.00017 37.11623 9311 ft 286 kts 317°
2026-04-21 15:05 37.01584 37.10105 9160 ft 281 kts 334°
2026-04-21 15:06 37.03417 37.09270 8306 ft 283 kts 346°
2026-04-21 15:06 37.05244 37.08692 8186 ft 257 kts 344°
2026-04-21 15:06 37.06896 37.08316 8154 ft 234 kts
2026-04-21 15:06 37.08549 37.08194 7275 ft 244 kts
2026-04-21 15:07 37.10141 37.08861 6592 ft 242 kts 40°
2026-04-21 15:07 37.11433 37.10194 4892 ft 290 kts 41°
2026-04-21 15:07 37.11960 37.10841 3896 ft 0 kts 69°
2026-04-21 15:07 37.11959 37.10840 3894 ft 0 kts 69°
2026-04-21 15:08 37.11958 37.10840 3893 ft 0 kts 69°